Dewpoint
52 53 55 56 60 59 58 58 57 56 55 54 53 52 50 48 46 45 46 45 44 45 45 47 47 48 41 20 6 26 34 37 29 22 15 12 9 7 2 4 4 4 3 6 9 6 4
51 51 53 54 54 59 59 58 58 56 55 54 53 52 51 48 46 45 45 44 44 45 46 47 47 48 35 11 20 27 28 24 20 18 17 16 13 13 8 6 4 4 7 5 4 4 3
49 49 50 51 52 53 57 58 58 57 55 54 53 52 50 48 46 45 45 43 45 45 46 47 48 41 28 15 26 28 25 18 18 18 14 18 17 14 14 8 11 11 7 5 2 3 2
48 49 50 49 50 51 51 53 57 57 56 55 54 52 50 48 47 45 44 43 45 46 48 49 48 37 17 27 29 27 21 17 18 18 17 18 19 17 16 15 13 9 8 6 5 5 5
47 50 50 49 49 50 49 50 51 53 56 55 54 52 50 48 47 45 43 44 46 49 48 48 43 34 15 29 22 18 18 15 14 18 20 17 18 17 16 14 5 4 2 1 -1 1 4
45 47 49 50 48 49 49 49 50 51 54 56 54 52 49 48 46 43 43 44 48 48 45 39 32 27 22 16 18 17 17 17 16 19 17 17 14 13 11 7 1 -1 -1 -2 -3 -1 2
45 45 47 49 50 49 49 49 49 50 51 55 54 52 50 48 45 43 42 43 36 31 32 21 17 14 17 18 19 15 16 18 18 17 13 14 11 4 6 10 8 6 3 1 2 3 6
45 46 46 46 48 49 48 49 49 49 49 51 55 52 50 47 44 43 43 34 23 27 17 23 16 18 20 17 13 14 16 15 18 13 16 15 12 11 13 13 12 10 8 7 7 6 8
46 45 45 46 46 47 47 48 49 50 49 49 52 52 49 46 45 42 36 29 31 31 19 19 11 9 17 17 9 13 15 17 16 15 15 13 12 17 16 14 11 10 9 10 9 9 9
45 45 47 48 47 46 46 46 47 47 48 48 50 52 47 45 37 33 30 33 34 38 28 25 14 13 19 16 12 12 16 20 22 18 16 15 18 17 15 12 14 12 15 14 12 10 4
44 45 46 47 48 47 47 46 45 46 48 48 51 50 45 39 33 31 31 34 39 33 22 27 17 17 17 11 16 15 23 24 20 20 21 19 17 17 16 15 17 15 19 16 15 13 12
42 45 45 46 47 47 46 45 45 46 47 48 51 48 43 38 36 35 37 39 36 27 20 17 16 16 15 14 17 20 23 26 26 23 21 20 21 19 16 18 20 19 20 19 18 15 9
42 44 45 46 47 46 45 46 46 46 47 48 51 47 41 37 34 38 38 35 26 22 21 12 11 13 13 14 16 20 21 24 20 19 18 19 19 19 20 19 21 22 21 16 9 10 8
43 44 45 46 46 45 46 46 47 50 47 48 50 44 39 40 39 42 35 32 24 24 18 10 10 12 11 16 18 19 20 19 24 22 20 15 17 18 20 19 19 20 20 15 6 2 5
42 43 45 46 45 46 46 46 50 52 47 48 49 41 38 43 43 41 37 28 27 24 23 12 13 12 15 19 21 20 19 17 23 26 22 19 15 19 19 20 22 25 20 21 15 15 14
43 44 45 44 46 48 51 52 53 52 48 48 40 39 39 43 44 40 34 32 30 20 14 15 13 13 16 18 23 21 19 21 26 28 29 26 24 22 22 25 24 23 26 22 19 15 13
42 44 43 44 47 49 51 53 51 49 48 42 39 35 41 45 43 37 29 32 27 19 18 16 16 16 19 17 24 19 19 24 27 28 28 28 27 23 24 23 23 26 25 26 21 19 17
42 44 43 45 47 51 52 51 49 45 43 41 37 29 42 42 32 32 31 30 20 20 26 26 21 20 24 24 24 20 21 26 26 26 26 28 32 26 23 23 26 26 25 29 21 18 23
42 44 44 44 47 48 46 45 44 44 42 39 32 33 41 40 28 29 29 27 20 20 23 23 25 29 31 31 28 32 25 28 28 27 27 30 30 23 22 27 22 21 24 26 28 34 26
41 43 44 43 45 46 45 44 45 44 41 39 34 27 32 34 36 29 26 22 19 21 20 22 24 30 29 30 30 30 27 26 27 28 31 34 26 26 21 25 22 22 23 24 25 27 29
41 41 44 43 42 43 43 43 43 43 42 40 36 29 30 27 31 28 21 22 19 18 21 24 26 25 25 25 23 25 23 25 26 31 30 33 28 28 24 25 25 27 26 28 29 29 27
41 40 42 43 42 42 43 43 43 43 43 38 33 28 27 28 30 27 25 24 20 19 21 20 20 21 18 18 20 21 27 25 27 29 32 33 30 30 28 29 25 25 27 29 26 25 24
41 41 40 42 43 43 43 43 44 43 43 38 39 33 31 33 31 29 30 25 20 21 22 21 19 19 15 14 18 22 24 28 28 27 28 30 30 27 26 29 27 23 26 26 25 25 24
42 41 41 40 41 43 42 43 43 43 41 38 36 37 32 29 29 29 24 23 20 21 19 18 21 18 25 24 28 28 25 25 27 27 27 25 25 25 27 26 20 26 27 26 25 25 25
41 40 42 41 40 41 42 42 43 42 42 37 36 34 29 29 27 23 20 19 19 20 20 21 22 25 25 24 26 25 26 27 26 27 28 27 25 23 22 23 24 26 27 26 26 24 26
40 40 41 42 42 42 42 42 42 42 42 39 37 39 32 26 25 23 20 19 20 21 23 27 29 30 27 17 22 13 13 13 20 24 27 26 27 26 23 19 18 25 25 26 25 23 24
41 40 40 40 41 41 42 42 41 41 40 40 36 43 33 25 22 20 19 21 20 21 20 25 26 25 26 15 19 12 13 16 17 17 23 23 22 22 22 20 23 24 27 29 23 25 25
40 41 41 39 39 40 41 42 41 41 39 38 37 41 33 29 29 28 26 24 21 19 20 23 22 23 19 17 13 16 18 20 21 18 19 18 18 22 22 20 21 26 29 26 28 26 24
41 41 40 39 40 41 41 42 41 41 39 38 33 36 34 29 33 34 34 33 30 26 22 26 21 17 18 14 18 19 22 25 18 21 22 20 21 25 24 25 28 29 31 29 28 25 24
Wind_Speed
11 12 11 13 23 24 24 24 22 21 21 19 17 16 14 11 10 9 10 12 13 13 13 10 13 16 10 7 2 7 5 4 7 6 5 4 7 7 10 6 9 17 17 10 10 14 18
10 10 11 11 12 21 25 24 23 23 22 21 19 18 16 13 11 9 9 12 14 15 14 13 12 15 7 10 4 2 3 4 3 7 3 6 5 6 11 11 10 10 12 17 18 19 18
12 11 10 10 11 12 14 23 23 23 23 22 21 20 17 14 11 9 11 11 15 14 15 15 12 8 8 4 1 3 2 2 3 5 7 3 7 9 6 9 4 9 15 19 20 4 9
14 14 12 9 8 10 10 11 17 25 23 23 22 22 19 15 12 10 9 12 14 17 11 10 9 9 6 4 2 6 3 6 3 5 6 5 7 10 9 8 13 15 16 14 10 5 14
16 17 16 13 11 9 9 12 13 14 22 25 24 23 20 17 12 9 7 10 15 9 2 7 6 7 7 7 9 6 5 6 3 4 3 4 7 11 7 12 13 18 11 9 17 9 9
18 20 19 18 16 16 12 12 14 15 18 24 26 25 23 19 14 11 6 7 4 5 7 8 6 7 7 10 10 4 4 5 6 4 6 9 7 10 12 12 13 16 19 18 19 14 17
19 21 21 19 19 18 17 17 17 17 18 20 28 30 25 22 16 11 2 3 7 8 15 13 2 5 9 8 5 9 6 7 8 8 12 7 11 15 11 9 11 13 15 16 17 14 17
19 19 20 23 22 22 22 22 22 21 19 19 21 25 28 25 19 13 6 5 5 5 9 17 11 7 4 6 9 10 8 8 8 13 6 8 16 4 4 5 9 11 15 17 15 9 14
19 20 24 24 25 22 21 23 23 24 24 23 25 31 28 25 18 9 14 6 12 13 7 13 15 16 14 13 12 12 14 5 11 12 13 14 3 1 7 8 9 11 14 16 18 17 22
21 23 23 22 22 24 24 26 28 32 32 28 27 33 32 27 11 14 11 7 5 3 2 6 8 11 11 10 8 8 9 6 7 10 8 11 5 6 9 8 6 11 8 13 14 14 13
22 24 24 27 28 27 29 31 33 36 34 29 25 38 40 36 12 21 13 17 5 9 8 8 14 14 16 14 12 13 7 7 12 11 7 5 9 10 11 5 2 5 10 14 16 17 17
22 26 25 28 31 32 35 38 40 39 36 32 33 42 42 22 9 20 23 21 11 6 7 7 8 17 19 16 12 10 9 7 4 10 15 16 4 6 10 4 6 10 13 16 13 10 11
23 28 27 30 31 37 42 45 44 44 39 38 41 46 41 23 16 27 28 15 6 7 8 12 12 18 20 14 14 13 14 15 13 10 17 16 15 7 8 9 9 7 12 8 8 11 15
25 29 29 31 33 42 46 47 48 44 42 42 44 44 29 16 30 27 21 10 10 14 12 5 11 16 22 18 15 14 13 19 12 12 7 11 8 18 13 9 5 7 6 8 8 10 17
27 29 30 31 39 45 49 50 43 32 43 44 44 27 25 19 29 21 20 7 15 21 16 11 17 20 14 15 5 14 19 19 12 12 7 7 6 9 7 8 6 3 8 7 11 20 15
26 27 27 32 38 43 44 34 28 27 45 51 32 22 15 28 26 23 15 14 17 10 22 26 17 19 17 19 12 16 18 10 9 10 4 3 4 7 7 5 13 14 2 6 9 6 9
23 24 25 30 34 41 33 27 27 41 56 46 27 15 15 22 17 16 12 11 13 12 16 21 16 11 9 17 17 22 14 9 15 11 8 5 4 8 8 10 6 7 12 11 15 13 8
20 18 22 26 33 29 10 32 51 63 52 30 10 11 19 27 17 7 11 12 14 21 13 6 9 9 19 17 16 17 12 10 13 11 11 6 3 6 8 4 2 4 11 14 14 10 10
13 12 16 21 25 29 39 54 58 53 35 14 8 11 15 17 12 19 15 14 16 29 18 13 11 10 9 10 6 4 12 8 9 11 8 11 6 6 10 9 7 4 5 10 12 10 20
9 8 4 16 21 26 31 37 29 18 14 9 9 11 7 4 5 24 25 24 20 20 16 13 13 12 13 6 2 10 12 10 9 6 6 4 5 5 5 4 4 6 11 14 18 11 6
7 2 5 14 17 19 19 20 22 19 13 7 4 8 14 16 13 24 21 23 23 19 10 14 8 13 14 7 8 7 13 11 9 8 7 4 5 2 8 9 5 3 8 11 4 3 4
6 6 5 16 21 15 14 15 17 17 13 6 8 14 19 28 23 25 15 21 26 15 16 18 13 20 15 13 8 15 11 15 9 12 9 7 5 8 11 7 5 7 7 3 9 11 11
10 9 10 8 20 22 15 10 10 9 9 5 3 12 14 17 21 20 16 24 25 15 9 11 18 19 14 12 9 11 4 4 5 9 10 9 6 7 4 14 9 6 4 7 7 8 4
10 11 10 16 12 16 17 8 5 2 6 6 15 10 15 19 22 21 26 27 25 19 14 16 19 14 9 9 9 6 5 5 6 5 2 7 6 4 6 10 6 7 8 8 11 8 11
12 11 10 16 22 21 16 14 4 6 4 2 4 6 10 24 26 22 24 23 22 11 19 19 10 10 11 9 9 9 6 5 8 8 8 6 4 5 5 10 7 8 9 8 5 4 3
14 14 13 12 20 19 13 7 5 6 4 4 6 8 10 21 21 20 24 24 23 20 17 8 7 5 5 8 8 9 8 10 8 6 8 7 5 6 5 7 6 12 12 5 4 8 9
14 15 16 15 13 9 8 5 3 2 6 7 1 4 8 10 17 22 20 24 14 14 10 14 9 5 3 10 10 9 7 2 8 9 9 11 10 11 11 8 6 8 12 8 5 6 9
17 17 16 12 10 3 3 5 1 5 4 7 3 6 5 14 13 8 8 12 9 11 13 16 9 4 7 10 12 5 4 7 4 3 4 7 6 6 4 5 4 7 10 5 8 14 13
17 20 16 14 11 5 3 1 1 5 4 4 6 2 12 8 15 17 16 13 9 7 8 15 1 18 9 9 4 4 3 3 9 5 3 4 3 3 5 3 4 3 5 11 12 14 13
Wind_Direction
299 301 320 327 235 223 225 222 217 214 214 211 211 213 223 232 242 262 281 293 300 306 307 311 310 318 313 251 290 109 290 227 246 268 293 297 276 288 262 288 281 261 267 289 287 277 274
295 302 305 318 332 244 224 224 221 215 213 212 208 206 208 219 236 251 268 290 297 303 303 304 306 306 255 270 93 137 334 269 310 287 298 286 312 321 282 279 272 332 287 281 280 277 277
276 284 291 311 328 317 286 228 225 218 213 209 205 204 205 206 219 241 275 285 292 297 302 300 293 278 254 278 267 221 199 306 326 322 300 295 308 275 342 271 313 276 281 278 268 326 280
279 270 263 279 293 306 317 320 258 223 214 210 206 200 197 200 206 229 257 286 292 293 289 280 266 266 271 147 273 223 218 229 268 285 271 287 274 281 261 294 267 255 265 273 133 211 296
298 285 266 257 257 267 288 297 292 282 227 209 205 195 192 188 190 219 258 291 291 285 209 179 227 250 265 138 192 170 244 280 287 222 234 260 251 262 224 251 274 220 273 278 298 298 303
293 288 284 262 252 256 262 278 285 280 267 229 200 190 185 178 185 213 227 277 229 199 209 219 255 248 188 209 163 187 209 239 243 218 220 231 242 257 229 246 286 319 306 305 297 310 303
288 286 284 282 274 262 257 264 276 278 272 250 206 187 182 173 173 180 189 169 241 220 219 236 264 261 144 130 180 211 194 211 221 231 252 193 263 240 337 339 308 291 287 285 291 302 299
285 283 283 280 275 275 273 262 265 265 265 259 215 190 178 166 170 183 209 208 7 331 294 222 240 245 225 198 198 215 194 226 211 242 184 232 241 49 313 291 281 281 281 282 298 305 288
288 286 280 275 271 269 273 275 268 258 257 253 245 196 177 153 153 165 191 211 19 349 259 228 216 220 188 201 223 186 201 224 233 231 227 252 12 134 276 273 268 271 285 298 305 308 275
289 289 286 269 258 268 269 269 270 264 257 251 248 186 160 139 152 176 206 169 72 334 305 236 208 225 184 202 229 169 211 236 219 239 231 258 135 228 260 260 273 288 355 309 294 297 302
292 288 285 279 267 266 269 273 270 262 256 244 226 172 156 153 157 183 152 128 100 98 256 156 176 132 170 192 121 188 165 197 238 206 215 126 202 227 236 254 297 287 328 298 292 286 296
294 290 283 282 276 272 275 273 265 254 242 227 196 173 158 177 171 139 128 116 78 118 236 203 174 192 174 204 210 136 194 223 314 249 233 260 169 245 240 206 250 293 292 274 261 273 273
291 289 284 282 274 279 279 270 262 251 231 212 190 174 163 166 168 141 139 132 125 190 137 189 198 184 189 183 186 196 192 201 209 204 214 213 219 198 220 233 195 243 273 292 238 223 257
292 290 285 281 281 283 278 275 268 250 218 203 180 167 165 166 142 158 166 126 212 234 210 161 175 188 201 177 188 200 209 214 220 244 266 216 187 195 181 234 291 277 298 283 292 304 314
295 290 292 290 292 287 283 272 263 230 200 189 160 163 159 157 148 165 166 165 215 213 188 170 165 185 191 192 203 200 215 218 193 214 230 201 237 166 182 222 232 126 238 316 290 274 260
304 300 300 301 301 297 284 256 233 199 174 156 146 144 152 156 157 173 208 213 219 208 156 176 183 192 207 188 189 199 199 203 182 211 243 160 228 223 192 235 233 237 298 271 224 267 270
308 306 312 314 320 297 266 237 176 159 148 144 136 131 148 150 157 176 197 213 197 177 158 178 199 184 210 191 198 203 199 181 180 188 217 175 225 144 191 227 198 198 238 236 260 266 271
307 304 327 342 335 295 232 156 141 136 142 131 125 129 159 142 161 202 197 197 167 173 157 159 184 177 205 188 201 200 205 184 189 176 188 188 161 232 231 57 294 266 260 244 236 260 257
306 311 330 12 8 108 122 129 135 141 139 114 91 96 156 173 180 181 186 186 190 175 168 162 151 171 150 173 173 156 199 147 162 207 173 177 198 228 177 169 140 334 316 292 289 296 269
289 332 351 50 60 88 112 122 117 99 104 85 120 129 143 207 260 178 181 177 177 182 169 170 149 132 141 150 189 174 175 174 199 214 82 189 217 283 330 73 356 319 321 307 264 256 309
246 325 134 110 115 80 85 82 77 65 50 74 76 160 160 179 191 188 176 170 163 161 180 159 162 191 158 135 159 169 171 157 196 163 192 201 197 164 133 112 78 44 9 10 35 344 320
209 199 157 156 150 135 100 79 60 49 358 73 128 156 179 155 167 167 162 191 170 162 162 185 177 168 167 160 190 169 166 177 184 176 169 173 173 176 191 202 169 90 37 47 72 91 104
181 178 176 168 172 162 136 115 52 13 350 87 70 127 145 149 160 163 180 182 182 155 187 179 170 155 167 133 102 139 163 117 138 172 168 169 183 197 232 195 209 217 102 94 73 62 150
160 169 180 174 179 187 153 187 257 320 355 102 142 129 141 151 163 176 178 177 176 187 158 169 158 159 109 113 118 139 174 192 201 185 236 187 199 247 168 168 227 117 120 110 110 75 90
176 164 189 169 176 176 178 222 230 263 291 164 165 178 137 153 168 180 179 176 164 157 154 147 116 106 149 153 151 143 159 168 195 201 199 232 273 245 231 220 113 166 191 175 194 133 144
181 167 154 143 141 168 145 184 234 275 209 234 243 258 163 148 182 177 171 159 159 146 136 134 119 125 164 182 209 198 183 204 164 175 213 203 243 261 244 247 221 109 138 144 152 188 170
185 166 151 143 134 133 138 152 208 319 242 245 193 295 212 145 146 164 164 167 162 165 149 147 146 150 214 195 198 210 187 271 174 198 175 211 222 240 257 252 107 133 142 143 196 132 152
181 163 148 142 125 148 111 110 358 314 243 246 78 354 122 113 81 107 116 132 150 172 160 138 137 195 190 199 205 183 242 186 191 61 196 216 218 206 242 249 192 150 149 208 117 129 133
175 154 151 148 146 160 209 209 159 309 291 284 103 47 143 115 105 91 73 51 33 32 125 178 303 165 178 205 234 151 199 147 217 193 183 219 316 11 10 49 114 120 105 126 136 134 135